GFSGBSN_con_lsi_024.txt.gz
Lid_Strength_Index
-1 0 1 0 -0 0 0 -0 0 0 0 0 0 0 0 0 0 -0 -0 -1 -1 -1 -1 -0 0 0 5 10 8 2 -1 -0 4 6 7 8 10 11 13 12 12 11 11 11 10 10 11
-1 -1 -0 1 1 1 0 -0 -0 0 -0 -0 0 0 0 0 -0 -0 -1 -1 -1 -1 -1 0 0 1 8 11 4 2 4 5 6 7 8 8 9 9 11 12 13 12 12 11 11 12 12
-1 -0 -1 -1 0 1 1 1 -0 -0 -0 -0 -0 0 0 0 -0 -0 -0 -1 -1 -1 -0 0 0 2 8 8 3 3 5 6 6 7 8 8 8 10 11 12 11 12 13 13 13 13 13
0 -1 -0 -0 -0 -0 1 1 1 1 0 -0 -0 0 0 0 0 -0 -0 -1 -1 -0 0 1 1 5 9 7 4 4 6 6 7 7 7 8 8 9 11 11 12 14 15 16 14 13 13
0 1 0 0 1 0 0 0 0 1 1 1 1 1 1 0 0 -0 -0 -0 1 1 0 0 5 8 9 5 6 6 7 7 8 8 8 7 9 12 12 15 16 17 18 18 15 13 14
1 1 1 0 1 1 1 0 -0 0 1 1 1 1 1 1 1 1 0 0 1 2 2 3 5 10 9 10 9 8 8 8 9 10 10 10 12 14 16 16 18 18 19 18 17 15 15
1 1 1 1 0 1 1 1 1 1 1 0 1 1 1 1 1 0 2 5 7 8 7 9 10 10 10 9 8 10 8 9 10 11 14 13 15 16 15 15 16 17 18 17 17 14 15
1 1 1 1 1 1 1 1 1 1 1 1 1 0 0 0 -0 -0 2 6 7 7 9 6 7 9 8 9 10 10 8 11 13 15 14 15 16 14 14 15 16 17 18 18 16 15 15
1 1 1 1 1 1 1 1 1 1 1 1 2 1 1 0 0 1 4 5 6 7 9 8 7 8 8 9 10 10 9 12 14 15 15 16 14 14 15 16 16 17 17 18 16 16 16
1 1 1 1 2 2 2 1 1 1 1 1 2 2 2 1 3 4 5 4 6 7 13 12 10 10 10 9 11 10 10 11 14 14 15 16 14 14 16 16 16 18 15 15 16 17 18
0 1 1 2 2 2 2 2 1 1 2 2 2 2 2 1 4 5 5 6 7 8 20 12 12 10 11 11 12 12 11 12 14 14 15 15 16 16 16 15 15 16 15 15 16 18 19
2 1 1 2 2 2 2 2 2 2 2 2 2 2 2 2 3 4 6 6 7 13 19 14 13 14 13 13 14 13 13 12 12 15 16 15 14 15 14 15 14 14 15 16 18 18 22
2 2 2 1 2 2 2 2 2 2 3 2 2 2 2 1 4 5 5 6 13 17 13 15 15 14 14 15 15 15 15 16 16 18 18 17 16 15 15 16 16 16 17 20 21 22 21
1 2 2 3 1 2 2 2 2 2 3 3 3 2 3 2 3 5 6 9 17 13 14 14 15 15 15 15 16 15 17 17 16 17 19 18 18 15 14 14 16 17 16 19 23 23 21
1 2 2 3 3 2 2 2 2 2 3 3 3 3 4 2 4 5 7 15 15 13 12 14 15 17 17 15 16 17 18 18 16 16 16 18 17 15 15 14 14 17 18 15 18 26 23
2 2 2 3 3 3 2 2 2 2 3 2 3 4 4 2 4 5 10 13 12 10 11 13 15 15 17 16 16 17 18 16 15 14 14 15 17 15 15 14 15 15 14 18 19 23 24
4 2 2 3 3 3 3 2 2 2 3 3 4 7 4 2 4 8 13 12 10 9 10 12 13 14 16 15 16 17 16 15 14 14 13 14 15 17 16 16 16 16 17 16 16 17 20
3 3 2 3 3 2 2 2 2 2 3 3 5 10 3 3 9 9 12 10 9 10 9 11 11 12 13 14 16 16 15 14 12 13 14 13 16 19 17 16 15 16 15 15 17 19 19
3 3 3 4 4 3 2 2 2 2 3 5 8 9 5 4 13 12 10 10 9 10 10 11 12 11 13 14 14 14 14 12 12 12 13 13 16 22 19 17 17 16 16 15 16 16 20
2 3 3 4 4 5 4 4 4 4 4 6 10 13 10 9 8 10 11 11 12 10 10 10 11 11 12 13 12 14 14 13 12 12 10 11 16 17 18 18 16 17 16 16 15 16 15
2 2 3 4 4 5 5 5 5 5 6 7 11 13 12 13 11 10 9 11 12 13 11 11 13 12 12 14 14 14 13 14 13 12 12 12 17 17 16 17 17 16 16 17 17 15 15
3 1 2 3 5 5 5 6 6 6 6 10 12 13 12 13 11 11 10 12 12 12 12 13 13 12 11 13 13 15 14 14 14 15 14 14 16 17 20 16 16 17 16 17 15 15 15
3 3 2 2 3 5 6 7 6 7 7 11 12 12 12 13 13 13 13 12 12 11 13 12 11 12 12 11 12 13 12 12 12 14 15 15 17 20 18 19 18 19 17 16 15 15 13
3 3 2 1 2 3 5 6 7 7 8 10 12 12 14 16 15 14 14 12 13 11 14 14 12 11 15 13 13 13 15 15 13 15 14 15 17 17 21 20 22 18 20 17 14 14 15
1 2 3 2 2 2 3 4 6 7 8 10 11 12 14 16 15 15 15 15 13 13 15 15 16 16 13 13 16 17 18 17 17 19 16 15 16 20 20 22 19 18 19 19 18 18 18
1 1 2 2 3 2 2 2 4 5 7 10 11 11 13 16 16 14 14 15 15 15 16 17 16 15 14 15 16 19 21 19 20 21 18 16 15 15 23 23 23 20 18 17 16 21 19
1 1 1 2 2 2 2 2 3 3 5 9 11 10 12 15 14 14 15 15 13 15 17 17 17 16 15 16 19 19 19 18 20 23 25 20 20 18 19 19 19 19 18 16 21 18 19
2 1 1 1 1 1 1 1 2 3 4 7 9 8 11 14 14 14 13 15 15 14 16 17 16 17 17 17 17 19 19 20 21 21 22 21 21 24 22 21 21 17 16 17 15 15 14
1 1 1 1 1 1 1 1 1 2 3 6 10 9 9 13 14 12 12 12 12 12 14 16 15 17 15 17 18 19 22 22 23 23 20 21 19 21 19 19 16 15 14 13 13 14 14

GFSGBSN_con_lsi_027.txt.gz
Lid_Strength_Index
-1 -0 -0 -1 -0 -0 -0 0 0 0 0 0 0 0 0 0 0 0 -0 -1 -1 -1 -1 -1 0 0 5 9 8 3 -1 -0 5 6 7 8 9 10 12 11 11 11 11 10 10 10 10
-1 -1 -1 -0 -0 -0 -0 0 0 -0 0 -0 0 0 0 0 0 0 -0 -1 -1 -1 -1 -0 0 0 9 10 4 3 5 6 6 7 8 8 8 9 10 11 12 11 11 11 11 11 11
-0 -1 -1 -0 -0 0 0 -0 0 -0 -0 -0 -0 0 0 0 -0 -0 -0 -1 -1 -1 -0 0 0 3 9 7 3 4 5 7 6 7 8 7 8 9 10 12 11 12 13 12 12 12 12
0 0 -0 -0 -0 -0 0 1 1 0 -0 -0 -0 0 0 0 0 0 -0 -1 -1 0 0 1 1 6 8 7 3 4 6 6 7 7 7 7 7 9 10 11 12 13 14 15 13 12 12
0 1 1 -0 0 0 -0 -0 1 1 1 0 0 0 0 0 0 0 -0 -0 0 1 0 0 6 9 9 5 6 6 7 7 8 8 8 7 9 11 11 14 15 15 16 17 15 13 13
0 1 1 1 0 1 1 1 0 0 1 1 1 1 1 0 0 0 -0 -0 1 2 2 3 5 9 9 10 8 8 8 8 9 9 9 10 12 14 15 15 17 17 17 17 16 14 14
0 1 1 1 1 1 1 1 1 1 0 0 1 1 1 1 1 1 1 5 7 8 8 8 9 10 10 9 8 9 9 9 10 11 13 13 14 15 14 14 15 16 17 16 16 14 15
-0 0 1 1 2 1 1 2 1 1 1 1 1 1 1 1 1 0 2 6 7 7 9 7 8 9 9 9 11 11 9 11 12 14 14 14 16 13 14 14 15 16 17 17 16 15 15
0 -0 0 1 1 2 2 2 1 1 1 1 2 1 1 1 -0 1 2 4 6 7 9 8 7 8 8 9 10 11 9 11 14 15 15 16 14 14 14 15 16 17 17 18 17 16 15
-0 0 1 1 1 1 1 2 2 1 1 2 2 2 1 1 3 2 3 2 6 6 12 11 9 8 9 8 11 10 10 11 14 14 15 15 14 14 16 16 16 18 16 16 16 17 18
1 1 1 1 2 2 2 2 2 2 2 2 2 2 2 1 4 4 4 5 7 8 19 12 11 9 10 10 12 12 11 12 14 14 14 14 15 16 16 16 15 16 16 16 16 17 18
0 2 2 1 1 1 1 2 2 2 3 3 2 2 2 2 3 4 6 7 7 13 19 14 13 14 13 13 14 13 13 12 12 15 15 14 14 14 14 15 15 15 16 17 18 18 22
0 0 2 1 2 1 1 2 2 2 2 3 3 2 2 1 4 5 6 7 13 17 13 15 15 14 14 15 15 14 15 16 16 17 17 16 15 15 15 16 16 17 17 20 21 22 21
1 1 1 1 2 2 1 1 2 2 2 3 3 2 3 2 4 5 6 10 17 14 14 15 15 15 15 15 15 15 16 17 15 17 18 18 19 15 14 15 17 18 17 19 23 23 20
1 1 1 1 1 2 2 1 2 2 2 3 3 3 4 2 4 4 8 15 15 14 12 15 15 17 17 16 15 16 17 17 14 15 16 18 18 16 16 15 15 17 18 16 19 26 22
1 1 1 0 1 2 2 2 2 2 3 3 4 5 5 2 4 4 10 13 13 10 12 14 14 15 18 17 17 17 18 16 15 14 13 15 18 16 16 15 15 16 15 18 19 23 25
1 1 1 1 1 2 2 3 3 2 3 3 4 7 4 2 4 7 13 12 10 10 11 13 13 14 16 17 16 18 17 16 14 15 13 15 15 17 16 17 17 16 17 17 17 18 22
1 2 2 2 1 2 3 3 3 2 3 3 4 10 3 2 9 9 12 11 9 9 9 10 12 13 14 14 16 17 17 15 13 14 15 13 15 19 17 16 16 16 16 16 18 20 20
2 2 2 2 3 3 3 3 2 2 2 3 7 7 3 4 13 12 9 10 9 10 9 10 11 12 12 14 15 15 16 13 13 13 14 13 16 20 19 17 17 17 16 16 16 17 20
2 2 2 2 3 3 4 3 3 2 2 4 9 12 9 6 7 10 11 11 11 8 9 10 11 11 13 13 12 15 15 13 13 13 10 11 15 17 17 17 16 18 17 16 16 20 18
3 3 2 2 2 3 4 4 4 4 4 6 10 12 11 12 11 10 9 10 12 12 9 9 12 11 12 13 13 13 14 14 14 12 12 12 16 17 17 17 16 16 17 17 17 15 16
3 3 2 2 3 3 4 5 5 5 5 10 12 13 12 13 12 11 10 11 12 11 11 12 11 11 10 12 12 13 13 14 14 14 14 13 16 17 19 17 17 18 17 17 16 15 15
2 2 2 3 2 3 4 5 5 6 6 10 11 11 11 12 13 13 12 11 11 9 11 10 10 11 12 10 11 13 11 12 12 14 15 15 17 17 17 20 18 18 17 17 16 16 14
1 1 2 3 2 2 4 4 6 6 8 9 11 11 13 16 13 13 13 12 12 11 12 13 11 11 14 13 12 13 14 14 14 15 13 16 16 16 22 20 22 19 21 16 15 15 16
2 1 1 2 2 2 2 3 5 6 7 10 10 11 13 15 14 15 14 14 13 14 15 15 16 15 12 13 16 17 18 17 19 20 17 15 16 20 21 20 19 20 20 18 17 17 16
1 1 1 1 2 2 2 2 3 6 6 9 10 10 12 15 15 14 15 15 16 16 17 18 16 15 13 15 16 19 20 19 21 21 19 16 15 15 21 21 22 21 19 18 17 20 18
2 1 1 1 1 2 2 1 2 4 5 9 10 8 11 14 14 14 15 15 14 15 17 17 17 15 15 16 18 19 20 18 21 22 22 20 20 18 20 20 19 19 20 18 20 18 20
2 2 1 1 1 1 1 1 1 3 4 8 10 8 10 14 14 14 14 14 15 14 16 17 16 16 17 16 17 18 19 19 20 21 21 20 20 21 20 21 21 18 19 19 16 18 18
2 2 2 1 1 1 1 1 1 2 4 7 11 8 9 13 14 12 11 12 12 10 14 16 15 16 15 16 17 18 21 22 21 21 21 20 17 19 18 18 18 16 16 15 15 15 16

GFSGBSN_con_lsi_030.txt.gz
Lid_Strength_Index
-1 -1 -0 -1 -1 -0 -0 -0 0 -0 -0 -0 -0 0 0 0 0 0 -0 -1 -1 -1 -1 -1 -1 -0 3 5 5 1 -0 -1 2 3 4 5 6 7 8 7 7 8 8 8 7 8 7
-0 -0 -0 -0 -1 -1 -0 -0 -0 -0 -0 -0 -0 0 0 0 0 0 -0 -1 -1 -1 -1 -1 -0 0 4 6 2 2 3 4 4 4 5 5 6 6 7 8 8 8 8 8 8 8 8
-0 -0 -0 -0 -0 -0 -1 -0 -0 -0 -0 -0 -0 0 0 0 0 0 -0 -1 -1 -1 -0 0 0 2 5 4 1 2 4 4 4 4 5 5 5 6 6 8 8 9 9 8 8 9 9
-0 -0 -0 0 -0 -0 0 -0 -0 -0 -0 -0 -0 0 0 0 0 -0 -0 -0 -0 0 0 0 0 3 5 5 0 3 3 4 4 4 4 4 4 6 7 7 9 10 10 10 9 10 10
-0 -0 -0 0 0 0 0 0 0 0 0 -0 -0 0 0 0 0 0 -0 -0 0 1 0 0 3 5 6 3 3 3 3 5 5 5 5 5 5 7 7 9 10 11 11 11 11 10 10
-0 -0 0 0 0 1 1 0 0 1 1 1 0 0 0 0 0 0 -0 -0 0 1 1 2 4 6 6 7 5 5 5 5 6 6 6 6 7 8 9 10 12 11 12 12 12 11 11
0 -0 0 0 0 1 1 1 1 1 1 1 1 1 1 0 -0 -0 -1 1 3 4 4 5 5 6 7 6 6 6 5 6 6 7 9 9 10 11 9 9 10 10 11 11 11 11 12
0 0 -0 0 1 1 1 1 1 1 1 1 0 1 1 1 1 0 0 4 3 4 7 4 5 6 7 7 9 8 6 8 8 10 10 11 11 9 10 10 11 12 12 11 11 12 12
-1 -0 -1 -0 0 1 2 2 2 1 1 1 2 1 0 0 1 1 2 2 4 5 7 6 6 6 7 7 8 9 7 9 10 11 11 11 10 10 10 12 12 12 12 12 12 13 12
-1 -1 0 0 -0 0 1 1 2 2 2 2 2 2 2 1 2 1 3 0 2 4 10 9 8 6 8 7 9 8 7 8 10 10 11 11 11 12 12 12 11 13 12 13 13 14 15
-1 -1 -0 0 0 1 1 2 2 2 2 2 2 2 1 1 2 3 1 0 2 4 17 9 9 7 8 7 9 10 8 8 11 12 11 11 13 13 13 12 12 12 12 13 13 14 15
-0 -1 0 0 0 1 1 2 2 2 2 2 2 2 2 2 2 3 4 3 4 11 18 12 11 11 10 10 11 10 10 9 10 12 12 11 11 11 11 12 12 12 13 14 14 14 17
-0 -1 -1 1 1 1 1 1 1 2 2 2 2 3 3 2 4 4 5 5 12 16 10 13 13 12 11 13 13 12 12 12 12 14 13 13 12 12 12 13 13 13 13 16 17 18 18
0 -0 -0 -0 1 1 1 1 1 1 2 2 2 2 3 2 3 4 5 8 16 12 11 12 13 12 12 13 13 14 13 13 12 13 13 14 15 13 12 11 13 14 13 15 20 19 16
1 1 -0 0 0 0 1 1 2 1 2 2 2 3 3 2 4 5 7 14 14 11 9 13 13 14 13 13 13 14 14 13 11 12 12 14 14 13 13 13 11 15 16 13 17 20 17
2 1 1 0 0 -0 0 1 1 2 2 2 3 4 4 2 4 6 10 13 11 9 9 11 13 12 14 14 14 14 14 12 12 11 10 12 14 14 14 12 13 13 12 16 16 19 20
3 2 1 1 1 1 0 1 1 2 2 2 3 7 4 2 4 7 13 12 10 8 10 11 11 12 12 14 13 14 13 13 11 12 10 11 12 15 14 15 14 15 15 15 14 15 18
3 3 1 1 1 1 2 1 1 2 2 3 4 10 3 2 9 9 12 10 9 8 9 9 10 9 12 13 13 14 14 11 11 12 14 11 13 15 15 14 14 12 13 14 15 18 16
2 2 2 2 1 1 2 2 1 2 2 3 7 7 3 4 12 12 9 9 8 9 9 9 10 10 10 12 13 13 13 11 11 12 12 11 13 17 16 15 15 15 14 13 13 15 16
2 3 3 2 1 1 2 2 2 2 2 4 7 11 7 6 7 10 11 11 11 8 9 8 9 8 10 11 11 12 13 12 11 11 10 10 12 14 16 13 13 15 15 14 13 15 14
1 2 2 3 2 1 2 3 3 4 2 5 9 10 10 12 10 10 9 10 11 12 9 8 10 10 10 12 12 12 11 13 12 11 11 11 14 13 12 13 13 13 14 14 14 13 14
1 1 2 2 2 1 2 3 4 5 5 6 12 12 11 12 11 10 10 11 11 10 10 11 11 10 10 12 11 12 10 11 12 13 13 12 14 13 15 14 14 15 14 14 14 13 13
1 1 1 2 2 2 2 3 4 4 6 9 10 10 10 11 12 12 11 11 11 9 9 8 9 10 11 10 8 8 9 9 10 13 14 14 14 16 17 15 17 18 15 14 14 13 13
2 1 1 1 1 2 2 2 4 4 5 9 10 9 12 15 13 13 12 11 12 11 11 11 10 10 9 10 11 12 14 14 13 14 13 14 14 15 17 18 20 15 16 12 13 12 12
2 1 1 1 1 2 2 1 3 3 4 7 9 10 12 15 13 13 12 12 11 13 14 13 15 15 10 12 16 17 17 16 18 19 16 14 14 18 20 19 16 20 18 15 15 14 13
2 2 1 1 1 1 2 2 2 3 4 6 8 8 11 13 14 12 13 13 14 15 16 17 15 15 13 15 16 18 20 17 19 19 17 16 14 15 19 19 20 16 17 16 14 17 15
2 2 2 1 1 1 1 1 1 2 4 6 7 7 9 13 13 12 13 14 13 14 16 17 16 15 15 16 17 18 18 17 19 19 19 18 18 17 18 19 17 15 18 17 18 15 15
2 2 2 2 1 1 1 1 1 2 4 5 8 6 8 12 12 12 12 13 14 13 15 16 15 16 16 16 16 17 18 18 19 19 18 18 18 18 18 19 19 17 18 17 14 16 15
2 3 2 2 1 1 1 1 1 1 2 5 8 7 8 11 12 10 10 11 11 10 14 15 15 15 13 15 15 17 19 19 18 20 20 18 16 17 16 16 17 16 15 15 14 14 16

GFSGBSN_con_lsi_033.txt.gz
Lid_Strength_Index
-0 -0 -1 -1 -1 -1 -1 -1 -0 -0 -1 -1 -0 -0 0 0 0 -0 -0 -1 -1 -1 -1 -1 -1 -0 1 4 4 1 -1 -1 2 3 4 5 6 6 7 7 6 7 7 7 6 7 7
-0 -0 -0 -1 -0 -1 -1 -1 -1 -0 -0 -1 -0 -0 0 0 0 -0 -0 -1 -1 -1 -1 -1 -1 0 3 6 1 2 3 2 3 3 4 4 6 5 6 7 7 6 7 7 7 7 7
-0 -0 -0 -0 0 0 -1 -1 -1 -1 -0 -0 -0 -0 -0 -0 -0 -0 -0 -1 -1 -1 -0 0 0 1 3 4 1 1 3 3 3 3 5 4 4 5 5 7 6 7 8 7 7 7 8
-1 -0 -0 -0 0 1 0 -0 -1 -1 -0 -0 -0 -0 0 0 -0 -0 -0 -0 0 -0 0 -0 -0 2 4 3 -0 2 3 4 3 3 4 3 3 5 6 6 7 8 8 9 8 8 8
-1 -0 -0 -0 -0 0 1 1 0 -0 -0 0 0 0 0 0 0 0 -0 -0 0 0 0 -0 2 3 5 2 3 2 2 4 4 4 4 4 4 6 6 8 9 8 10 9 9 8 8
-0 0 -0 -0 0 0 1 1 1 1 0 0 0 0 0 0 0 0 -0 -0 -1 1 1 2 3 5 5 6 4 3 3 3 5 5 5 6 6 8 8 8 11 10 10 9 10 9 9
-1 -0 0 0 0 0 1 1 1 2 1 1 1 0 0 0 0 -0 -0 1 3 4 3 4 4 4 6 6 4 4 4 5 5 6 8 7 9 10 8 8 8 9 10 10 8 9 10
-1 -1 -0 0 0 0 1 1 1 1 1 1 1 1 1 0 -0 -0 -0 3 3 3 6 3 3 4 5 5 7 6 4 6 7 8 7 9 11 8 7 8 9 10 10 10 8 9 10
-1 -1 -1 0 1 0 0 1 1 1 1 2 2 2 1 1 1 0 1 2 1 2 6 5 4 4 5 6 7 7 6 6 8 9 9 10 9 9 9 10 11 10 10 10 10 10 10
-1 -1 -1 -1 -0 0 -0 0 1 1 2 2 2 2 2 1 2 2 3 0 -0 2 9 8 7 5 6 6 8 6 6 7 9 9 9 9 8 10 10 10 9 11 8 10 11 12 13
0 -0 -0 -0 -0 0 1 0 1 1 2 3 3 2 2 1 3 4 2 -0 -1 2 16 8 8 6 6 7 8 9 6 8 9 10 9 10 11 11 11 10 9 10 10 10 10 12 12
1 0 -0 -0 -0 -0 0 0 0 1 1 2 3 2 2 2 2 2 1 1 2 11 16 11 9 10 9 7 9 9 9 7 7 9 10 9 9 9 10 11 10 10 11 12 12 12 16
2 0 0 0 0 0 0 0 0 1 2 2 2 2 3 1 5 3 3 4 12 15 9 12 11 10 9 10 11 10 11 11 11 13 12 10 11 10 10 12 12 11 12 16 17 17 17
2 2 1 0 0 -0 -0 0 1 1 1 2 2 2 3 2 1 3 3 9 17 12 11 10 10 11 11 11 11 12 12 13 11 10 11 13 14 11 11 10 11 13 11 15 20 19 16
3 3 1 1 1 0 -0 -0 1 1 1 2 2 3 3 2 1 3 7 14 13 12 10 10 11 12 12 12 11 12 12 11 10 10 12 12 13 10 10 10 9 13 14 10 14 18 17
2 3 2 1 1 0 0 0 -0 1 1 1 3 3 4 2 2 5 10 13 11 9 8 8 12 11 13 12 13 13 12 10 10 9 8 10 13 12 12 11 11 11 10 15 15 20 20
1 3 3 2 2 2 1 0 -0 0 1 1 3 7 3 2 3 7 13 13 10 8 7 9 10 11 11 11 12 13 11 9 9 10 9 9 11 14 13 14 13 14 14 13 13 14 18
1 1 2 3 2 2 1 1 0 -0 0 3 4 10 3 2 9 9 12 10 9 9 7 8 8 9 10 10 12 12 12 10 9 10 12 10 11 14 13 12 11 11 12 13 15 17 16
1 1 1 2 3 2 2 1 1 1 0 3 7 7 2 3 13 12 9 9 9 9 9 9 10 9 8 10 13 11 10 8 9 10 11 10 12 17 15 14 14 14 13 12 13 14 16
1 1 1 2 2 2 2 1 1 1 0 2 6 11 7 6 7 10 11 11 11 8 9 8 9 8 9 10 10 10 10 10 9 10 9 9 11 14 17 13 12 15 14 13 13 15 15
1 1 1 1 2 2 2 2 1 2 2 2 6 9 8 12 10 10 9 9 11 12 8 8 10 9 10 12 11 12 10 11 11 10 10 10 14 12 12 11 11 12 13 14 15 14 14
1 1 1 1 1 1 1 2 1 2 2 5 10 10 9 11 10 10 10 11 11 10 10 11 11 9 9 11 11 12 10 10 11 12 12 12 14 13 14 12 12 13 12 12 13 13 13
2 1 1 1 1 1 1 2 2 2 3 7 8 6 9 12 11 12 11 11 10 9 8 8 9 10 10 9 7 7 7 8 8 11 14 13 14 15 17 13 14 17 14 13 12 12 12
2 2 1 1 1 1 1 1 1 2 2 5 7 8 11 14 13 13 12 11 10 9 10 8 8 9 8 6 8 11 13 12 11 9 11 14 15 15 17 16 21 14 10 11 12 11 11
2 2 2 2 1 1 1 1 2 1 2 3 6 8 12 13 12 11 12 12 12 11 14 13 13 13 12 10 14 15 16 16 16 16 14 12 13 16 18 18 14 13 17 14 13 13 10
2 2 2 2 2 1 1 1 1 1 1 3 4 5 9 12 13 10 11 11 14 15 15 15 15 14 13 14 15 16 18 15 18 18 17 16 12 15 18 19 20 14 14 13 11 16 12
1 2 2 2 2 2 1 1 1 1 1 3 5 4 8 11 10 11 13 13 12 13 15 16 15 15 15 15 16 16 16 15 17 18 19 18 16 17 16 18 16 14 16 13 16 15 15
1 2 2 2 2 2 1 1 0 0 0 2 4 5 6 10 10 11 11 12 13 13 15 15 15 15 16 16 16 17 17 17 16 15 16 17 18 18 16 17 19 16 17 15 14 15 14
1 2 2 2 2 2 2 1 0 0 0 2 5 5 6 8 10 9 9 10 10 11 13 14 14 14 14 15 15 16 17 18 16 18 18 17 15 15 15 15 17 16 16 15 15 14 15

GFSGBSN_con_lsi_036.txt.gz
Lid_Strength_Index
-0 -0 -0 -1 -1 -1 -1 -1 -1 -0 -0 -1 -1 -0 -0 0 0 -0 -0 -1 -1 -1 -1 -1 -1 -0 1 4 4 1 -0 -1 1 3 4 5 7 7 9 8 7 9 8 7 7 8 8
-0 0 -0 -0 0 -1 -1 -1 -1 -1 -0 -1 -0 -0 -0 -0 -0 -0 -0 -1 -1 -0 -1 -1 -1 0 2 6 1 2 2 2 2 4 5 5 6 6 8 8 9 8 7 8 7 7 8
-1 -1 0 -0 0 1 0 -1 -1 -1 -1 -0 -0 -0 -0 -0 -0 -0 -0 -0 -0 0 -0 -1 -1 1 3 4 1 2 3 3 3 4 5 4 5 6 7 8 7 8 10 9 8 8 9
-1 -1 -1 -0 -0 0 1 1 -0 -1 -1 -0 -0 -0 -0 -0 -0 -0 -0 -0 0 -0 -0 -1 -1 2 5 2 1 2 3 4 3 3 4 4 4 5 6 7 8 10 10 12 9 8 9
-1 -0 -1 -0 0 0 0 1 1 0 -0 -0 0 0 -0 -0 -0 -0 -0 -0 -0 -1 -0 -0 1 3 6 2 3 2 3 4 4 4 4 4 4 7 8 10 11 11 13 12 11 8 10
-1 -1 -0 1 -0 0 0 1 1 1 1 0 0 0 0 0 0 -0 -0 -1 -1 -0 0 1 2 5 5 6 4 3 3 4 5 5 6 6 8 10 10 11 14 12 13 11 12 10 10
-1 -1 -1 -0 0 0 0 1 1 1 1 2 2 0 0 0 0 -0 0 1 4 5 3 5 5 5 6 6 4 4 4 5 5 7 9 8 11 12 10 9 9 10 12 12 11 10 11
-1 -1 -1 -1 -0 0 1 0 1 1 1 2 2 2 0 -0 -0 -0 0 4 3 4 7 4 4 4 5 5 8 5 4 7 8 10 8 11 12 9 8 8 10 11 12 12 10 11 12
-1 -1 -1 -1 -1 -0 0 1 0 1 1 2 2 2 2 1 0 0 2 3 2 2 7 6 4 5 6 6 7 7 6 7 9 9 9 11 9 8 9 11 11 12 12 12 12 12 12
-0 -0 -1 -1 -1 -0 -0 1 1 0 1 2 2 2 2 1 3 2 3 0 -0 1 10 10 7 5 7 6 8 5 5 7 9 10 9 10 8 10 11 11 11 13 10 10 11 13 16
1 0 -0 -1 -1 -0 -0 0 1 0 1 1 2 2 2 2 4 4 3 1 0 3 17 8 8 5 6 7 8 9 6 8 10 11 10 12 11 12 11 11 10 12 10 11 12 14 15
1 1 1 -0 -0 -0 -0 -0 -0 0 0 1 2 2 2 3 3 3 2 2 2 12 17 10 9 9 9 8 9 9 9 8 9 10 11 11 10 11 11 11 10 10 11 13 14 14 18
1 1 1 1 0 -0 -0 -0 0 -0 0 1 2 2 2 2 6 1 2 4 13 16 11 13 12 10 10 11 11 11 12 13 12 14 14 12 12 10 10 12 11 12 13 18 19 20 20
1 1 1 1 1 0 0 0 0 1 0 0 1 2 2 3 2 2 3 10 18 14 14 9 10 11 12 11 11 12 13 14 11 11 13 14 15 11 11 11 13 14 13 17 22 21 19
0 2 2 2 2 1 1 0 0 1 0 1 1 2 3 3 2 3 7 16 16 13 11 12 11 13 12 11 12 13 13 13 11 11 13 13 14 11 12 11 11 14 15 12 17 21 21
1 1 1 2 2 2 1 1 0 1 1 1 2 3 4 2 1 4 10 14 13 10 9 10 13 12 13 12 13 13 13 11 11 11 9 11 15 12 13 12 12 13 12 17 17 23 23
0 0 0 1 2 1 2 2 0 0 0 0 3 7 2 1 2 7 13 14 11 9 9 11 12 12 12 12 13 14 13 11 10 10 10 11 13 16 14 15 14 15 15 14 14 16 20
0 0 0 1 2 2 1 2 2 1 0 1 4 10 2 1 9 9 12 10 9 9 7 8 9 10 10 11 13 13 13 11 9 9 12 10 12 17 16 13 13 13 14 14 17 18 16
1 0 0 0 1 1 2 2 2 1 0 2 7 7 2 3 12 12 9 10 9 10 10 9 10 9 9 10 12 12 12 10 9 10 11 10 13 17 17 16 15 15 14 12 12 15 17
1 0 0 0 0 1 1 1 2 1 1 2 6 11 7 6 7 10 11 11 11 8 9 8 9 8 10 11 10 12 12 10 10 10 9 9 12 14 17 15 13 16 15 13 13 17 17
1 1 0 1 0 0 1 1 1 2 2 4 6 9 7 12 10 10 9 10 11 12 9 8 10 9 11 13 11 12 11 12 12 10 10 10 15 13 12 12 12 15 15 14 15 14 16
0 1 1 1 0 0 0 0 1 1 1 5 8 8 7 9 8 10 10 11 11 10 10 11 11 10 9 11 11 12 10 11 13 12 13 12 15 13 15 13 13 14 12 14 14 14 14
-0 0 1 2 2 0 0 0 0 1 1 5 6 6 7 9 9 11 12 11 11 9 8 8 9 10 11 10 8 7 8 9 9 12 14 13 14 15 17 14 14 17 14 13 13 13 13
-0 -0 0 1 2 1 1 0 0 1 0 3 5 6 9 12 10 10 10 10 10 11 11 8 8 9 8 7 6 9 11 11 9 9 11 14 14 15 17 15 21 14 11 11 12 11 11
-1 -0 0 1 2 2 1 1 1 0 0 2 4 6 9 12 10 10 11 10 10 10 12 13 12 13 11 8 12 15 14 13 12 11 10 10 13 15 18 18 15 14 17 14 14 13 10
-0 -0 0 1 1 2 2 2 1 0 0 2 3 4 8 11 11 9 10 10 11 13 14 13 14 13 12 11 13 16 18 15 16 16 17 12 11 15 16 19 20 17 17 14 12 16 13
-0 -0 -0 0 1 2 2 2 1 1 0 2 3 3 7 11 9 9 11 11 10 12 13 14 14 14 14 14 14 16 16 13 17 17 20 17 15 16 16 18 16 18 19 15 17 17 18
-0 -0 -0 0 1 2 2 2 1 1 0 2 3 2 5 10 9 9 9 11 12 12 14 14 14 15 15 15 15 16 16 16 16 17 18 16 16 16 15 18 19 17 18 15 16 18 16
-0 -0 0 0 0 1 2 1 1 1 1 1 4 2 3 8 10 8 8 8 9 10 12 14 13 14 13 14 15 15 17 18 17 18 17 17 16 15 16 16 18 17 17 16 16 16 16

GFSGBSN_con_lsi_042.txt.gz
Lid_Strength_Index
-1 -0 -0 -0 -0 -0 -0 -1 -1 -1 -0 -0 -1 -0 0 0 0 0 -0 -0 -1 0 0 -0 -1 -1 3 7 6 3 -0 0 3 5 7 8 10 10 12 11 10 12 11 10 9 9 10
-1 -1 -1 -1 -0 -0 0 0 -0 -1 -1 -1 -0 -0 -0 0 0 0 -0 -0 -0 -0 0 -0 -1 -0 5 10 3 3 3 4 5 6 8 8 9 9 10 11 12 10 10 10 9 10 10
-1 -1 -1 -1 -1 0 1 0 0 0 -0 -1 -0 -0 -0 -0 0 0 -0 -0 -0 -0 -0 -1 -1 1 6 7 3 5 5 6 6 6 7 7 7 9 9 11 9 10 13 12 11 10 10
-0 -1 -1 -1 -0 -1 0 0 0 0 1 0 -0 -0 -0 -0 -0 -0 -0 -0 -0 -0 -0 -1 -1 4 8 4 4 5 5 6 6 6 6 6 7 8 9 10 10 13 13 14 11 11 11
-1 -0 -0 -0 -0 1 -0 0 0 1 1 1 1 1 -0 -0 -0 -0 -0 -0 0 -0 -1 -1 4 6 9 3 4 4 6 7 6 6 7 5 7 10 10 13 14 14 16 15 13 11 12
0 -0 -1 -0 -0 -0 1 0 0 1 1 1 1 2 1 0 0 -0 -0 -0 -0 0 1 1 3 9 8 7 5 5 5 6 7 8 8 8 10 12 13 14 16 15 16 15 14 12 13
-0 0 0 -0 -0 0 -0 1 1 0 1 1 2 2 2 1 1 -0 1 3 6 8 5 10 9 10 8 6 5 6 5 6 7 9 12 11 13 14 12 13 13 13 14 15 13 11 13
0 0 0 0 -0 0 0 1 0 1 -0 1 2 2 2 2 1 1 2 5 5 5 9 5 5 6 6 6 8 7 6 8 9 11 11 12 14 11 11 11 12 13 14 15 13 12 13
0 0 1 1 0 -0 -0 -0 1 1 1 1 1 2 2 2 2 3 4 4 3 4 9 8 6 6 7 7 8 8 7 9 10 12 12 13 11 10 10 12 12 13 14 14 13 13 14
1 1 1 1 1 1 0 0 -0 0 1 1 1 1 2 2 4 4 6 3 3 4 15 13 8 7 8 7 9 6 7 8 10 11 11 12 10 11 11 12 11 14 11 12 13 15 17
0 2 2 1 1 1 1 0 -0 -0 0 1 1 1 1 2 4 5 4 3 3 7 21 12 9 6 8 9 10 9 8 9 11 11 11 12 12 12 12 12 11 12 11 13 14 16 17
0 1 1 1 1 1 1 1 0 -0 0 0 1 1 1 2 2 3 3 2 3 14 20 13 9 10 10 9 11 10 9 9 9 11 12 12 11 11 11 11 11 11 12 13 15 16 19
-0 -0 0 1 2 1 1 1 1 0 0 0 0 1 1 1 4 1 1 5 15 18 12 14 12 11 11 11 12 11 12 12 13 14 14 13 12 12 11 12 12 12 15 19 19 20 19
0 0 -0 0 0 1 2 1 1 1 0 0 0 1 1 0 1 1 3 11 18 15 14 11 12 12 13 11 12 12 13 13 12 13 15 15 16 13 12 12 13 14 15 19 21 21 20
1 1 1 0 0 0 1 2 1 1 0 0 0 2 1 0 1 1 7 14 15 14 12 13 12 14 14 13 13 14 15 15 13 13 14 16 16 13 13 12 11 15 15 13 17 25 22
1 1 1 1 0 0 0 1 1 1 1 0 3 4 3 -0 0 3 9 13 12 10 10 10 13 12 14 14 14 15 15 13 13 12 11 13 17 15 14 12 14 14 12 17 18 23 24
1 1 1 1 1 1 0 1 1 1 1 0 3 6 2 -0 1 7 13 12 11 9 9 10 12 12 13 14 13 15 14 13 11 12 11 12 13 17 15 15 15 15 16 15 15 18 21
1 1 1 1 1 1 1 1 1 1 0 1 4 9 2 1 9 9 12 10 8 10 8 9 10 10 12 12 13 14 14 13 11 11 13 12 12 18 16 15 15 15 15 15 18 19 19
1 1 1 2 2 1 2 1 1 1 1 4 6 7 2 2 12 11 9 9 8 9 9 9 10 9 10 11 13 13 13 11 11 11 13 11 14 19 17 16 16 16 15 13 14 17 17
1 2 2 2 1 2 2 2 1 1 1 3 6 10 7 5 6 9 11 11 11 7 8 8 9 8 10 11 10 13 13 11 10 10 9 9 12 15 16 15 15 17 16 14 13 16 16
1 2 2 2 2 2 2 2 1 1 0 4 6 9 8 11 10 9 9 10 11 12 8 8 9 9 10 13 12 12 10 12 11 10 10 10 14 13 12 13 14 15 14 14 15 14 16
1 2 2 2 2 2 2 1 2 2 0 4 8 9 7 8 8 9 9 11 12 10 10 11 11 9 9 11 11 12 11 11 11 11 10 11 14 12 14 12 14 14 15 14 14 13 14
1 1 1 2 2 2 2 1 1 1 1 4 5 4 6 8 9 10 11 10 10 9 9 8 9 10 10 9 8 7 8 8 9 10 11 12 13 14 17 13 15 17 14 14 14 13 13
1 1 1 1 2 2 1 1 0 0 1 2 4 5 8 11 10 10 9 9 10 9 11 9 8 10 7 6 6 6 8 9 9 10 8 13 13 14 17 15 21 13 11 10 11 11 12
1 1 1 1 1 1 1 0 -0 -0 -0 2 2 4 7 11 9 10 9 9 9 9 10 10 9 8 7 8 12 14 13 13 12 10 10 9 12 15 17 18 15 13 14 13 13 12 10
1 1 1 1 1 0 0 -0 -1 -1 -1 1 3 1 4 9 10 8 9 8 10 11 11 11 13 12 8 11 14 16 18 15 16 14 10 10 10 14 16 19 20 13 13 11 11 15 10
1 1 0 0 0 -0 0 -0 -1 -1 -1 1 3 1 4 8 7 7 9 10 8 9 13 12 12 12 11 12 14 15 16 13 16 16 15 14 14 16 16 17 15 15 16 11 16 14 18
1 0 -0 -0 -0 -0 -0 -0 -1 -1 -1 1 3 1 4 7 6 6 6 8 9 10 11 14 12 12 12 13 14 14 15 13 14 13 14 15 16 16 15 17 19 16 15 13 14 17 17
0 -0 -1 -1 -0 -0 -0 -0 -0 -1 -1 -1 4 1 1 5 7 5 5 5 6 7 7 10 11 12 10 11 12 14 15 15 14 17 15 15 13 15 14 14 17 16 17 16 16 18 17

GFSGBSN_con_lsi_045.txt.gz
Lid_Strength_Index
-0 -0 -0 -0 -0 -0 -1 -1 -1 -1 -1 -0 -1 -0 -0 0 0 -0 -0 -0 -1 -0 -0 -0 -1 -1 3 8 7 3 -0 1 4 5 7 9 10 11 12 11 11 13 12 10 10 10 11
-1 -1 -1 -1 -1 0 -0 -0 -0 -1 -1 -1 -1 -0 -0 -0 -0 -0 -0 -0 -0 -0 -0 -1 -1 -0 5 11 4 4 4 5 5 7 8 8 9 10 11 12 12 11 11 11 10 11 11
-0 0 -0 -1 -1 -0 0 0 -0 -0 0 -0 -1 -0 0 -0 -0 -0 -0 -0 -0 -0 -0 -1 -1 2 7 8 4 5 5 6 6 7 8 8 8 9 10 11 10 11 13 12 12 11 11
-0 0 0 -0 -0 0 -0 0 0 0 0 1 1 -0 -0 0 0 0 0 0 -0 -0 -0 -1 -1 5 9 4 4 5 6 7 6 6 7 7 7 8 10 10 11 13 13 15 13 11 11
0 -0 -0 0 -0 0 0 0 -0 0 1 1 1 2 1 0 0 0 0 0 0 -0 -1 -1 5 7 10 3 5 4 6 7 7 7 7 6 8 11 11 13 14 14 16 16 13 11 12
0 1 0 -0 1 1 1 1 1 0 1 1 1 2 2 2 1 0 -0 -0 0 0 1 2 4 10 8 8 6 5 6 6 8 9 9 9 11 12 14 14 17 16 16 15 15 13 13
1 1 1 1 0 0 1 1 1 1 1 1 2 2 2 2 2 1 1 4 8 9 6 10 10 11 8 7 6 6 6 7 8 10 12 12 13 14 13 13 13 14 15 15 14 12 13
1 1 1 1 1 1 0 1 1 1 1 1 1 1 1 2 2 1 3 7 8 6 10 6 6 7 7 6 8 7 6 9 10 12 12 13 14 11 11 12 13 14 15 15 13 12 13
1 2 2 1 1 1 1 1 1 1 2 1 2 1 2 1 2 3 5 5 4 5 10 9 6 7 7 7 8 8 7 9 11 12 12 13 12 10 11 13 13 14 15 15 14 14 14
2 1 2 2 2 1 1 1 0 1 1 1 1 1 1 2 4 4 6 4 3 6 15 13 10 7 8 7 9 7 7 9 11 12 12 12 11 11 12 13 12 15 12 13 14 15 17
1 1 2 2 2 1 1 1 1 0 0 1 1 2 1 2 4 5 4 3 3 8 19 11 9 6 8 9 10 9 8 9 11 11 11 13 12 12 13 12 11 13 12 13 14 16 17
-0 -0 0 2 2 2 1 1 1 1 0 1 1 1 1 2 2 3 2 2 4 13 19 14 9 10 10 10 11 10 9 9 9 11 12 13 11 11 11 12 11 11 13 14 15 16 19
0 -0 -0 -0 0 1 2 2 2 1 1 1 1 1 2 1 4 2 1 6 15 17 12 14 13 11 11 12 12 11 12 12 13 14 14 14 13 12 11 12 12 12 14 18 19 21 19
1 1 0 0 -0 1 1 2 2 2 1 1 1 1 2 1 0 1 3 11 18 14 14 12 12 12 13 12 13 12 13 14 12 13 15 15 17 12 11 11 13 14 14 18 21 22 20
1 1 1 1 0 0 0 1 1 2 1 1 1 4 2 1 -0 1 7 15 15 13 12 12 12 14 14 13 13 14 14 14 12 12 14 15 15 13 13 12 11 14 16 13 16 24 22
2 1 1 1 1 1 0 1 0 1 1 1 4 4 5 0 -0 3 9 13 11 9 10 10 13 12 14 14 14 15 15 13 13 11 12 13 17 15 14 13 13 14 13 17 18 23 25
2 2 2 1 1 1 1 1 1 0 1 1 4 6 4 -0 1 6 13 12 10 9 8 10 11 12 12 13 13 16 14 13 12 13 10 12 14 17 15 15 15 15 16 16 16 18 21
2 2 2 1 2 2 1 1 1 1 1 3 7 9 3 0 9 8 11 10 9 9 7 9 9 10 12 11 13 14 14 13 11 11 13 12 13 18 16 15 14 15 16 15 18 20 19
1 1 1 1 1 2 2 1 1 0 1 6 9 9 3 2 12 11 9 9 8 9 9 9 10 9 10 10 13 12 13 11 11 11 12 11 14 21 18 16 16 16 15 13 14 17 17
1 1 2 1 1 1 1 1 1 1 0 4 9 12 8 6 6 9 10 11 11 7 8 8 9 8 10 11 9 12 12 11 10 10 9 9 13 16 16 17 15 17 16 14 14 17 17
1 1 1 2 2 1 1 1 1 1 0 3 8 12 10 11 10 9 9 10 11 11 8 8 10 10 10 12 12 12 11 11 11 10 10 10 14 13 12 12 15 15 15 14 15 14 16
1 1 1 1 1 1 1 1 0 1 0 4 9 11 9 10 9 9 9 10 11 10 10 11 11 10 10 12 11 12 11 10 11 11 11 10 14 13 14 12 13 15 15 14 14 13 13
0 0 0 1 1 1 1 1 1 1 1 6 5 7 8 10 11 11 10 10 10 9 8 8 9 10 11 9 7 7 7 7 8 10 11 11 13 15 17 13 14 17 14 13 14 13 13
0 0 0 0 1 1 1 1 1 1 1 5 6 6 10 13 10 11 10 8 9 9 10 8 8 10 7 5 6 6 8 8 9 9 8 12 13 14 17 15 21 13 10 10 12 11 11
0 0 0 0 0 0 1 1 1 1 1 4 4 6 8 12 11 11 10 9 8 8 9 9 9 8 6 8 11 13 13 13 12 10 10 9 12 15 17 17 15 13 13 13 14 12 10
0 0 0 0 0 0 1 1 1 1 1 2 4 3 6 9 11 9 10 9 10 10 11 10 10 10 8 11 14 16 17 15 16 14 9 10 10 14 16 19 20 13 12 10 11 15 10
0 0 0 0 0 0 0 1 1 1 1 2 3 2 5 8 7 8 9 9 8 10 10 11 11 11 10 12 14 15 16 13 16 16 15 14 14 16 16 17 16 14 16 12 16 14 17
0 0 1 1 1 0 0 0 1 1 0 1 2 1 5 7 7 6 5 8 7 8 10 11 11 11 12 13 13 14 15 13 14 13 14 15 16 16 15 17 19 15 14 13 14 16 17
0 1 1 1 1 0 0 0 0 0 -0 -0 3 1 1 6 6 4 4 4 4 5 7 10 11 14 10 11 11 12 14 13 14 16 14 15 13 14 14 14 15 15 15 15 16 18 17

GFSGBSN_con_lsi_048.txt.gz
Lid_Strength_Index
-1 -1 -0 -0 -0 -0 -1 -0 -1 -1 -1 -0 -0 -0 -0 0 -0 -0 -0 -0 -1 -1 -1 -1 -1 -1 4 9 8 4 0 1 5 6 8 9 11 11 13 12 12 12 12 11 10 11 10
-0 -0 -0 -1 -0 0 -0 -0 -0 -1 -1 -1 -1 -0 -0 -0 -0 -0 -0 -0 -0 -0 -0 -1 -1 -1 6 12 4 4 5 5 6 7 8 8 10 10 11 12 13 11 11 11 11 11 11
0 -0 -0 -1 0 -0 -0 0 0 -0 -0 -0 -0 -0 -0 -0 -0 -0 -0 -0 -0 -0 -0 -1 -1 2 7 9 4 6 5 6 6 7 8 8 8 10 11 12 11 12 13 13 13 12 12
1 0 0 -0 -1 -0 0 -0 0 0 0 0 1 1 -0 -0 0 -0 -0 -0 -0 -0 -0 -1 -1 6 11 5 4 6 6 7 6 6 7 7 8 9 10 11 11 13 14 15 13 12 12
0 1 1 0 0 -0 -0 1 -0 -0 1 1 1 1 1 1 0 0 -0 -0 0 -0 -1 -1 5 7 11 3 5 5 7 8 7 7 7 6 8 11 11 13 15 15 17 16 14 12 13
0 1 1 0 1 1 1 0 0 1 1 1 1 1 2 1 1 1 0 -0 0 0 1 2 4 11 9 9 6 6 7 7 8 9 9 9 11 13 14 14 17 16 17 16 16 13 14
0 1 1 1 1 1 1 2 2 1 1 1 1 2 2 2 2 1 1 5 10 10 6 11 11 12 9 7 6 7 7 8 9 10 13 12 14 15 13 14 14 15 16 15 15 13 14
1 1 1 1 1 1 1 1 2 2 2 1 1 1 1 1 1 2 4 8 10 7 10 7 7 7 6 6 9 8 7 9 11 13 12 13 15 12 12 13 14 15 15 15 14 13 14
1 1 2 2 2 1 1 1 1 1 2 2 2 2 1 1 2 3 6 6 4 6 12 10 7 7 7 7 8 8 7 10 12 13 13 14 12 11 12 14 14 14 15 15 15 14 14
1 2 1 2 2 2 1 1 1 1 1 2 2 2 1 1 4 4 5 4 4 6 14 12 11 8 8 7 10 7 7 9 12 12 13 13 11 12 13 14 13 15 13 13 14 15 18
0 0 1 2 2 2 2 2 1 1 1 1 2 1 1 1 3 5 4 3 3 8 19 10 10 7 8 10 10 9 8 9 12 12 11 13 13 13 13 13 12 13 12 13 14 16 18
0 0 0 0 1 2 2 2 2 2 1 1 1 2 2 1 2 2 2 2 4 13 19 13 10 10 10 10 11 10 10 9 10 11 12 13 12 11 11 12 11 11 13 14 15 16 19
1 0 0 -0 -0 0 1 2 3 2 2 1 1 1 2 3 4 1 1 5 14 18 11 13 13 11 12 12 12 12 12 13 13 15 15 14 13 12 11 13 12 13 14 18 20 21 20
2 1 1 0 0 -0 0 1 2 2 2 1 1 1 3 2 -0 0 3 9 17 15 13 11 12 13 13 12 13 13 13 14 12 14 16 16 17 13 12 12 13 14 14 18 22 22 20
2 2 1 1 1 0 0 0 0 1 1 1 1 4 4 2 1 0 6 15 15 13 11 12 12 14 15 13 13 14 15 15 12 12 14 16 16 13 13 12 11 14 15 13 16 24 21
2 2 2 1 1 1 1 0 0 0 1 1 5 6 6 0 -0 3 9 13 11 10 10 10 14 12 15 14 14 15 15 13 13 12 12 13 16 14 14 12 13 13 12 16 18 22 24
2 2 2 1 1 1 1 1 1 0 1 1 6 8 4 0 0 6 13 12 10 8 7 10 12 13 13 14 13 15 14 14 13 13 11 12 14 16 15 15 15 15 15 16 16 18 21
2 2 2 1 2 1 2 1 1 1 1 3 8 11 4 0 8 8 11 9 8 10 7 8 9 10 11 12 13 14 14 13 12 12 13 12 14 18 16 15 15 16 16 15 18 20 19
1 1 1 1 1 1 1 2 1 1 1 6 10 10 5 2 12 11 9 9 8 9 9 9 10 9 9 10 13 12 12 10 10 11 12 12 14 20 17 16 16 16 15 14 15 17 18
1 1 1 1 1 1 1 1 1 1 1 4 9 13 10 6 6 9 10 10 11 7 8 8 9 8 10 11 10 12 12 11 10 10 8 9 12 14 17 16 15 17 16 14 13 17 16
1 1 1 1 1 1 1 1 1 0 1 3 8 12 11 12 12 11 9 10 11 11 8 8 10 10 11 13 12 12 11 11 11 9 9 9 14 13 12 13 15 15 16 15 14 14 17
1 1 0 1 1 1 1 1 1 0 -0 4 9 12 11 12 11 9 10 12 11 10 10 10 11 9 10 12 12 13 11 11 11 11 10 9 14 13 15 12 13 14 15 14 14 14 13
0 0 0 0 0 1 1 1 1 0 1 7 5 5 8 11 12 12 12 10 10 10 9 8 9 10 11 9 8 7 7 8 8 10 11 12 13 15 17 13 14 17 14 13 13 12 13
-0 0 0 -0 0 0 0 1 1 1 0 5 6 5 9 14 10 12 11 11 11 9 10 9 7 9 8 5 6 6 7 8 8 9 8 12 13 14 16 15 21 13 11 11 12 11 11
-0 -0 -0 0 -0 -0 0 0 0 0 0 4 3 5 8 13 11 11 11 10 11 10 10 8 7 6 5 7 11 13 13 12 11 10 10 9 12 15 17 17 14 13 13 13 14 13 10
-1 -0 -0 -0 -0 -0 0 -0 0 0 0 3 3 3 6 11 12 10 12 11 13 13 12 9 9 8 6 10 12 16 17 15 16 14 9 10 10 14 16 19 20 13 10 11 11 15 10
-1 -0 -0 -0 -0 -0 -0 -0 -0 -0 0 3 3 2 6 10 10 9 13 11 10 12 12 17 11 9 8 11 14 15 16 12 16 16 15 14 14 16 16 17 16 13 15 11 16 14 17
-0 -0 -0 -0 -0 -0 -0 -0 -0 -0 0 2 4 2 5 9 10 8 7 9 8 9 12 13 10 9 10 13 13 13 14 13 14 13 14 15 16 16 15 17 19 13 14 13 12 16 16
-1 -1 -0 -0 -1 -0 -0 -0 -0 -0 0 1 5 3 3 7 8 6 6 6 5 5 7 9 10 14 8 11 11 11 13 12 13 16 12 15 13 15 14 14 11 14 12 13 14 15 15